Time,TemperatureF,DewpointF,PressureIn,WindDirection,WindDirectionDegrees,WindSpeedMPH,WindSpeedGustMPH,Humidity,HourlyPrecipIn,Conditions,Clouds,dailyrainin,SoftwareType,DateUTC
2013-01-27 00:07:00,29.5,22.6,30.47,North,360,0.0,0.0,75,0.00,,SCT150,0.00,VWS V14.01,2013-01-27 05:07:00,
2013-01-27 00:13:00,29.5,23.0,30.47,North,360,0.0,0.0,76,0.00,,SCT150,0.00,VWS V14.01,2013-01-27 05:13:00,
2013-01-27 00:18:00,29.1,22.6,30.47,North,360,0.0,0.0,76,0.00,,SCT150,0.00,VWS V14.01,2013-01-27 05:18:00,
2013-01-27 00:23:00,29.1,22.6,30.47,North,360,0.0,0.0,76,0.00,,SCT150,0.00,VWS V14.01,2013-01-27 05:23:00,
2013-01-27 00:28:00,29.1,22.6,30.47,North,360,0.0,0.0,76,0.00,,SCT150,0.00,VWS V14.01,2013-01-27 05:28:00,
2013-01-27 00:33:00,29.0,22.5,30.47,North,360,0.0,0.0,76,0.00,,SCT150,0.00,VWS V14.01,2013-01-27 05:33:00,
2013-01-27 00:38:00,29.0,22.5,30.48,North,360,0.0,0.0,76,0.00,,SCT150,0.00,VWS V14.01,2013-01-27 05:38:00,
2013-01-27 00:48:00,29.0,22.5,30.47,North,360,0.0,0.0,76,0.00,,SCT150,0.00,VWS V14.01,2013-01-27 05:48:00,
2013-01-27 00:53:00,29.0,22.5,30.47,North,360,0.0,0.0,76,0.00,,SCT150,0.00,VWS V14.01,2013-01-27 05:53:00,
2013-01-27 00:58:00,28.9,22.4,30.47,North,360,0.0,0.0,76,0.00,,SCT150,0.00,VWS V14.01,2013-01-27 05:58:00,
2013-01-27 01:07:00,28.8,22.3,30.47,North,360,0.0,0.0,76,0.00,,SCT150,0.00,VWS V14.01,2013-01-27 06:07:00,
2013-01-27 01:13:00,28.8,22.3,30.48,North,360,0.0,0.0,76,0.00,,SCT150,0.00,VWS V14.01,2013-01-27 06:13:00,
2013-01-27 01:18:00,28.7,22.2,30.48,North,360,0.0,0.0,76,0.00,,SCT150,0.00,VWS V14.01,2013-01-27 06:18:00,
2013-01-27 01:23:00,28.6,22.4,30.48,North,360,0.0,0.0,77,0.00,,SCT150,0.00,VWS V14.01,2013-01-27 06:23:00,
2013-01-27 01:28:00,28.6,22.4,30.48,North,360,0.0,0.0,77,0.00,,SCT150,0.00,VWS V14.01,2013-01-27 06:28:00,
2013-01-27 01:33:00,28.4,22.5,30.48,North,360,0.0,0.0,78,0.00,,SCT150,0.00,VWS V14.01,2013-01-27 06:33:00,
2013-01-27 01:38:00,28.4,22.5,30.49,North,360,0.0,0.0,78,0.00,,SCT150,0.00,VWS V14.01,2013-01-27 06:38:00,
2013-01-27 01:43:00,28.4,22.5,30.48,North,360,0.0,0.0,78,0.00,,SCT150,0.00,VWS V14.01,2013-01-27 06:43:00,
2013-01-27 01:53:00,28.3,22.5,30.49,North,360,0.0,0.0,78,0.00,,SCT150,0.00,VWS V14.01,2013-01-27 06:53:00,
2013-01-27 01:58:00,28.2,22.4,30.49,North,360,0.0,0.0,78,0.00,,SCT150,0.00,VWS V14.01,2013-01-27 06:58:00,
2013-01-27 02:08:00,28.1,21.9,30.49,North,360,0.0,0.0,77,0.00,,SCT150,0.00,VWS V14.01,2013-01-27 07:08:00,
2013-01-27 02:18:00,28.2,21.7,30.49,North,360,0.0,0.0,76,0.00,,SCT150,0.00,VWS V14.01,2013-01-27 07:18:00,
2013-01-27 02:23:00,28.1,21.6,30.49,North,360,0.0,0.0,76,0.00,,SCT150,0.00,VWS V14.01,2013-01-27 07:23:00,
2013-01-27 02:33:00,28.1,21.3,30.49,North,360,0.0,0.0,75,0.00,,SCT150,0.00,VWS V14.01,2013-01-27 07:33:00,
2013-01-27 02:43:00,28.2,21.0,30.49,North,360,0.0,0.0,74,0.00,,SCT150,0.00,VWS V14.01,2013-01-27 07:43:00,
2013-01-27 02:48:00,28.2,21.0,30.50,North,360,0.0,0.0,74,0.00,,SCT150,0.00,VWS V14.01,2013-01-27 07:48:00,
2013-01-27 02:53:00,28.2,20.7,30.50,North,360,0.0,0.0,73,0.00,,SCT150,0.00,VWS V14.01,2013-01-27 07:53:00,
2013-01-27 02:58:00,28.2,20.7,30.50,North,360,0.0,0.0,73,0.00,,SCT150,0.00,VWS V14.01,2013-01-27 07:58:00,
2013-01-27 03:07:00,28.1,20.2,30.50,North,360,0.0,0.0,72,0.00,,SCT150,0.00,VWS V14.01,2013-01-27 08:07:00,
2013-01-27 03:13:00,28.0,20.1,30.51,North,360,0.0,0.0,72,0.00,,SCT150,0.00,VWS V14.01,2013-01-27 08:13:00,
2013-01-27 03:18:00,28.1,19.9,30.51,North,360,0.0,0.0,71,0.00,,SCT150,0.00,VWS V14.01,2013-01-27 08:18:00,
2013-01-27 03:23:00,28.1,19.9,30.50,North,360,0.0,0.0,71,0.00,,SCT150,0.00,VWS V14.01,2013-01-27 08:23:00,
2013-01-27 03:28:00,28.0,19.8,30.50,North,360,0.0,0.0,71,0.00,,SCT150,0.00,VWS V14.01,2013-01-27 08:28:00,
2013-01-27 03:33:00,28.0,19.4,30.50,North,360,0.0,0.0,70,0.00,,SCT150,0.00,VWS V14.01,2013-01-27 08:33:00,
2013-01-27 03:38:00,28.1,19.5,30.50,North,360,0.0,0.0,70,0.00,,SCT150,0.00,VWS V14.01,2013-01-27 08:38:00,
2013-01-27 03:43:00,28.2,19.2,30.50,North,360,0.0,0.0,69,0.00,,SCT150,0.00,VWS V14.01,2013-01-27 08:43:00,
2013-01-27 03:48:00,28.3,19.0,30.50,North,360,0.0,0.0,68,0.00,,SCT150,0.00,VWS V14.01,2013-01-27 08:48:00,
2013-01-27 03:58:00,28.3,19.0,30.50,North,360,0.0,0.0,68,0.00,,SCT150,0.00,VWS V14.01,2013-01-27 08:58:00,
2013-01-27 04:07:00,28.3,19.0,30.51,North,360,0.0,0.0,68,0.00,,SCT150,0.00,VWS V14.01,2013-01-27 09:07:00,
2013-01-27 04:13:00,28.4,19.1,30.51,North,360,0.0,0.0,68,0.00,,SCT150,0.00,VWS V14.01,2013-01-27 09:13:00,
2013-01-27 04:23:00,28.4,19.1,30.50,North,360,0.0,0.0,68,0.00,,SCT150,0.00,VWS V14.01,2013-01-27 09:23:00,
2013-01-27 04:28:00,28.4,19.1,30.50,North,360,0.0,0.0,68,0.00,,SCT150,0.00,VWS V14.01,2013-01-27 09:28:00,
2013-01-27 04:38:00,28.4,19.1,30.50,North,360,0.0,0.0,68,0.00,,SCT150,0.00,VWS V14.01,2013-01-27 09:38:00,
2013-01-27 04:43:00,28.4,19.1,30.50,North,360,0.0,0.0,68,0.00,,SCT150,0.00,VWS V14.01,2013-01-27 09:43:00,
2013-01-27 04:48:00,28.4,19.4,30.50,North,360,0.0,0.0,69,0.00,,SCT150,0.00,VWS V14.01,2013-01-27 09:48:00,
2013-01-27 04:53:00,28.3,19.0,30.50,North,360,0.0,0.0,68,0.00,,SCT150,0.00,VWS V14.01,2013-01-27 09:53:00,
2013-01-27 04:58:00,28.4,18.7,30.51,North,360,0.0,0.0,67,0.00,,SCT150,0.00,VWS V14.01,2013-01-27 09:58:00,
2013-01-27 05:07:00,28.4,18.7,30.51,North,360,0.0,0.0,67,0.00,,SCT150,0.00,VWS V14.01,2013-01-27 10:07:00,
2013-01-27 05:13:00,28.5,18.4,30.51,North,360,0.0,0.0,65,0.00,,SCT150,0.00,VWS V14.01,2013-01-27 10:13:00,
2013-01-27 05:18:00,28.5,18.4,30.51,North,360,0.0,0.0,65,0.00,,SCT150,0.00,VWS V14.01,2013-01-27 10:18:00,
2013-01-27 05:23:00,28.5,18.4,30.51,North,360,0.0,0.0,65,0.00,,SCT150,0.00,VWS V14.01,2013-01-27 10:23:00,
2013-01-27 05:28:00,28.5,18.4,30.51,North,360,0.0,0.0,65,0.00,,SCT150,0.00,VWS V14.01,2013-01-27 10:28:00,
2013-01-27 05:33:00,28.4,17.9,30.51,North,360,0.0,0.0,64,0.00,,SCT150,0.00,VWS V14.01,2013-01-27 10:33:00,
2013-01-27 05:38:00,28.5,18.0,30.51,North,360,0.0,0.0,64,0.00,,SCT150,0.00,VWS V14.01,2013-01-27 10:38:00,
2013-01-27 05:43:00,28.4,17.9,30.51,North,360,0.0,0.0,64,0.00,,SCT150,0.00,VWS V14.01,2013-01-27 10:43:00,
2013-01-27 05:48:00,28.4,17.9,30.52,North,360,0.0,0.0,64,0.00,,SCT150,0.00,VWS V14.01,2013-01-27 10:48:00,
2013-01-27 05:58:00,28.3,17.8,30.52,North,360,0.0,0.0,64,0.00,,BKN150,0.00,VWS V14.01,2013-01-27 10:58:00,
2013-01-27 06:07:00,28.3,17.4,30.53,North,360,0.0,0.0,63,0.00,,BKN150,0.00,VWS V14.01,2013-01-27 11:07:00,
2013-01-27 06:13:00,28.3,17.4,30.53,North,360,0.0,0.0,63,0.00,,BKN150,0.00,VWS V14.01,2013-01-27 11:13:00,
2013-01-27 06:18:00,28.3,17.4,30.53,North,360,0.0,0.0,63,0.00,,BKN150,0.00,VWS V14.01,2013-01-27 11:18:00,
2013-01-27 06:23:00,28.3,17.4,30.53,North,360,0.0,0.0,63,0.00,,BKN150,0.00,VWS V14.01,2013-01-27 11:23:00,
2013-01-27 06:28:00,28.3,17.4,30.53,North,360,0.0,0.0,63,0.00,,BKN150,0.00,VWS V14.01,2013-01-27 11:28:00,
2013-01-27 06:33:00,28.4,17.5,30.54,North,360,0.0,0.0,63,0.00,,BKN150,0.00,VWS V14.01,2013-01-27 11:33:00,
2013-01-27 06:38:00,28.4,16.7,30.54,North,360,0.0,0.0,61,0.00,,BKN150,0.00,VWS V14.01,2013-01-27 11:38:00,
2013-01-27 06:48:00,28.4,16.7,30.55,North,360,0.0,0.0,61,0.00,,BKN150,0.00,VWS V14.01,2013-01-27 11:48:00,
2013-01-27 06:53:00,28.4,16.7,30.55,North,360,0.0,0.0,61,0.00,,BKN150,0.00,VWS V14.01,2013-01-27 11:53:00,
2013-01-27 06:58:00,28.4,16.7,30.55,North,360,0.0,0.0,61,0.00,,BKN150,0.00,VWS V14.01,2013-01-27 11:58:00,
2013-01-27 07:07:00,28.3,17.0,30.56,North,360,0.0,0.0,62,0.00,,BKN150,0.00,VWS V14.01,2013-01-27 12:07:00,
2013-01-27 07:13:00,28.3,17.0,30.57,North,360,0.0,0.0,62,0.00,,BKN150,0.00,VWS V14.01,2013-01-27 12:13:00,
2013-01-27 07:23:00,28.1,16.9,30.56,North,360,0.0,0.0,62,0.00,,BKN150,0.00,VWS V14.01,2013-01-27 12:23:00,
2013-01-27 07:28:00,28.1,17.2,30.56,North,360,0.0,0.0,63,0.00,,BKN150,0.00,VWS V14.01,2013-01-27 12:28:00,
2013-01-27 07:33:00,28.0,17.1,30.57,North,360,0.0,0.0,63,0.00,,BKN150,0.00,VWS V14.01,2013-01-27 12:33:00,
2013-01-27 07:38:00,28.0,16.8,30.58,North,360,0.0,0.0,62,0.00,,BKN150,0.00,VWS V14.01,2013-01-27 12:38:00,
2013-01-27 07:43:00,28.0,17.5,30.57,North,360,0.0,0.0,64,0.00,,BKN150,0.00,VWS V14.01,2013-01-27 12:43:00,
2013-01-27 07:48:00,27.9,17.5,30.57,North,360,0.0,0.0,64,0.00,,BKN150,0.00,VWS V14.01,2013-01-27 12:48:00,
2013-01-27 07:58:00,27.8,17.0,30.58,North,360,0.0,0.0,63,0.00,,BKN200,0.00,VWS V14.01,2013-01-27 12:58:00,
2013-01-27 08:07:00,27.9,17.1,30.59,North,360,0.0,0.0,63,0.00,,BKN200,0.00,VWS V14.01,2013-01-27 13:07:00,
2013-01-27 08:13:00,28.3,17.4,30.59,North,360,0.0,0.0,63,0.00,,BKN200,0.00,VWS V14.01,2013-01-27 13:13:00,
2013-01-27 08:23:00,28.5,17.2,30.59,North,360,0.0,0.0,62,0.00,,BKN200,0.00,VWS V14.01,2013-01-27 13:23:00,
2013-01-27 08:28:00,28.8,17.5,30.59,North,360,0.0,0.0,62,0.00,,BKN200,0.00,VWS V14.01,2013-01-27 13:28:00,
2013-01-27 08:33:00,28.8,17.1,30.60,North,360,0.0,0.0,61,0.00,,BKN200,0.00,VWS V14.01,2013-01-27 13:33:00,
2013-01-27 08:38:00,29.0,17.3,30.60,North,360,0.0,0.0,61,0.00,,BKN200,0.00,VWS V14.01,2013-01-27 13:38:00,
2013-01-27 08:48:00,29.2,17.5,30.61,North,360,0.0,0.0,61,0.00,,BKN200,0.00,VWS V14.01,2013-01-27 13:48:00,
2013-01-27 08:53:00,29.4,17.3,30.61,North,360,0.0,0.0,60,0.00,,BKN200,0.00,VWS V14.01,2013-01-27 13:53:00,
2013-01-27 08:58:00,29.8,18.0,30.61,North,360,0.0,0.0,61,0.00,,BKN200,0.00,VWS V14.01,2013-01-27 13:58:00,
2013-01-27 09:07:00,30.0,17.8,30.61,North,360,0.0,0.0,60,0.00,,BKN200,0.00,VWS V14.01,2013-01-27 14:07:00,
2013-01-27 09:13:00,29.6,17.5,30.61,North,360,0.0,0.0,60,0.00,,BKN200,0.00,VWS V14.01,2013-01-27 14:13:00,
2013-01-27 09:18:00,29.5,17.8,30.61,North,360,0.0,0.0,61,0.00,,BKN200,0.00,VWS V14.01,2013-01-27 14:18:00,
2013-01-27 09:23:00,29.6,18.3,30.62,North,360,0.0,0.0,62,0.00,,BKN200,0.00,VWS V14.01,2013-01-27 14:23:00,
2013-01-27 09:28:00,29.6,18.3,30.62,North,360,0.0,0.0,62,0.00,,BKN200,0.00,VWS V14.01,2013-01-27 14:28:00,
2013-01-27 09:38:00,29.9,18.5,30.62,North,360,0.0,0.0,62,0.00,,BKN200,0.00,VWS V14.01,2013-01-27 14:38:00,
2013-01-27 09:43:00,30.1,18.7,30.61,North,360,0.0,0.0,62,0.00,,BKN200,0.00,VWS V14.01,2013-01-27 14:43:00,
2013-01-27 09:48:00,30.3,18.9,30.62,North,360,0.0,0.0,62,0.00,,BKN200,0.00,VWS V14.01,2013-01-27 14:48:00,
2013-01-27 09:58:00,30.9,19.5,30.62,North,360,0.0,0.0,62,0.00,,SCT250,0.00,VWS V14.01,2013-01-27 14:58:00,
2013-01-27 10:07:00,30.7,19.7,30.63,North,360,0.0,0.0,63,0.00,,SCT250,0.00,VWS V14.01,2013-01-27 15:07:00,
2013-01-27 10:13:00,30.6,18.8,30.62,North,360,0.0,0.0,61,0.00,,SCT250,0.00,VWS V14.01,2013-01-27 15:13:00,
2013-01-27 10:23:00,31.3,19.1,30.62,North,360,0.0,0.0,60,0.00,,SCT250,0.00,VWS V14.01,2013-01-27 15:23:00,
2013-01-27 10:33:00,31.2,19.0,30.63,North,360,0.0,0.0,60,0.00,,SCT250,0.00,VWS V14.01,2013-01-27 15:33:00,
2013-01-27 10:38:00,31.2,19.4,30.62,North,360,0.0,0.0,61,0.00,,SCT250,0.00,VWS V14.01,2013-01-27 15:38:00,
2013-01-27 10:43:00,31.1,18.9,30.63,North,360,0.0,0.0,60,0.00,,SCT250,0.00,VWS V14.01,2013-01-27 15:43:00,
2013-01-27 10:48:00,31.1,18.4,30.63,North,360,0.0,0.0,59,0.00,,SCT250,0.00,VWS V14.01,2013-01-27 15:48:00,
2013-01-27 10:53:00,31.3,18.6,30.63,North,360,0.0,0.0,59,0.00,,SCT250,0.00,VWS V14.01,2013-01-27 15:53:00,
2013-01-27 10:58:00,31.6,19.3,30.62,North,360,0.0,0.0,60,0.00,,SCT250,0.00,VWS V14.01,2013-01-27 15:58:00,
2013-01-27 11:07:00,31.8,19.1,30.62,North,360,0.0,0.0,59,0.00,,SCT250,0.00,VWS V14.01,2013-01-27 16:07:00,
2013-01-27 11:13:00,32.2,19.0,30.62,North,360,0.0,0.0,58,0.00,,SCT250,0.00,VWS V14.01,2013-01-27 16:13:00,
2013-01-27 11:18:00,32.6,19.0,30.62,North,360,0.0,0.0,57,0.00,,SCT250,0.00,VWS V14.01,2013-01-27 16:18:00,
2013-01-27 11:28:00,32.3,19.1,30.61,North,360,0.0,0.0,58,0.00,,SCT250,0.00,VWS V14.01,2013-01-27 16:28:00,
2013-01-27 11:33:00,32.4,19.2,30.61,North,360,0.0,0.0,58,0.00,,SCT250,0.00,VWS V14.01,2013-01-27 16:33:00,
2013-01-27 11:38:00,32.4,19.2,30.61,North,360,0.0,0.0,58,0.00,,SCT250,0.00,VWS V14.01,2013-01-27 16:38:00,
2013-01-27 11:43:00,32.4,18.8,30.60,North,360,0.0,0.0,57,0.00,,SCT250,0.00,VWS V14.01,2013-01-27 16:43:00,
2013-01-27 11:48:00,32.3,18.7,30.60,North,360,0.0,0.0,57,0.00,,SCT250,0.00,VWS V14.01,2013-01-27 16:48:00,
2013-01-27 11:58:00,32.5,18.9,30.60,North,360,0.0,0.0,57,0.00,,BKN250,0.00,VWS V14.01,2013-01-27 16:58:00,
2013-01-27 12:07:00,33.3,19.6,30.60,North,360,0.0,0.0,57,0.00,,BKN250,0.00,VWS V14.01,2013-01-27 17:07:00,
2013-01-27 12:13:00,33.2,19.1,30.59,North,360,0.0,0.0,56,0.00,,BKN250,0.00,VWS V14.01,2013-01-27 17:13:00,
2013-01-27 12:18:00,33.3,19.2,30.58,North,360,0.0,0.0,56,0.00,,BKN250,0.00,VWS V14.01,2013-01-27 17:18:00,
2013-01-27 12:23:00,32.7,18.6,30.58,North,360,0.0,0.0,56,0.00,,BKN250,0.00,VWS V14.01,2013-01-27 17:23:00,
2013-01-27 12:28:00,33.2,19.5,30.58,North,360,0.0,0.0,57,0.00,,BKN250,0.00,VWS V14.01,2013-01-27 17:28:00,
2013-01-27 12:33:00,33.5,18.9,30.58,North,360,0.0,0.0,55,0.00,,BKN250,0.00,VWS V14.01,2013-01-27 17:33:00,
2013-01-27 12:38:00,33.1,18.5,30.57,North,360,0.0,0.0,55,0.00,,BKN250,0.00,VWS V14.01,2013-01-27 17:38:00,
2013-01-27 12:43:00,33.3,19.6,30.57,North,360,0.0,0.0,57,0.00,,BKN250,0.00,VWS V14.01,2013-01-27 17:43:00,
2013-01-27 12:48:00,34.1,19.5,30.57,North,360,0.0,0.0,55,0.00,,BKN250,0.00,VWS V14.01,2013-01-27 17:48:00,
2013-01-27 12:58:00,34.4,19.8,30.56,North,360,0.0,0.0,55,0.00,,BKN250,0.00,VWS V14.01,2013-01-27 17:58:00,
2013-01-27 13:07:00,33.8,18.3,30.56,North,360,0.0,0.0,52,0.00,,BKN250,0.00,VWS V14.01,2013-01-27 18:07:00,
2013-01-27 13:13:00,33.9,17.9,30.56,North,360,0.0,0.0,51,0.00,,BKN250,0.00,VWS V14.01,2013-01-27 18:13:00,
2013-01-27 13:18:00,34.6,19.0,30.55,North,360,0.0,0.0,52,0.00,,BKN250,0.00,VWS V14.01,2013-01-27 18:18:00,
2013-01-27 13:23:00,34.7,18.6,30.55,North,360,0.0,0.0,51,0.00,,BKN250,0.00,VWS V14.01,2013-01-27 18:23:00,
2013-01-27 13:28:00,34.9,18.8,30.55,North,360,0.0,0.0,51,0.00,,BKN250,0.00,VWS V14.01,2013-01-27 18:28:00,
2013-01-27 13:33:00,34.9,18.3,30.55,North,360,0.0,0.0,50,0.00,,BKN250,0.00,VWS V14.01,2013-01-27 18:33:00,
2013-01-27 13:38:00,35.3,18.7,30.55,North,360,0.0,0.0,50,0.00,,BKN250,0.00,VWS V14.01,2013-01-27 18:38:00,
2013-01-27 13:43:00,35.4,18.8,30.54,North,360,0.0,0.0,50,0.00,,BKN250,0.00,VWS V14.01,2013-01-27 18:43:00,
2013-01-27 13:48:00,35.9,19.2,30.55,North,360,0.0,0.0,50,0.00,,BKN250,0.00,VWS V14.01,2013-01-27 18:48:00,
2013-01-27 13:53:00,35.8,19.1,30.55,North,360,0.0,0.0,50,0.00,,BKN250,0.00,VWS V14.01,2013-01-27 18:53:00,
2013-01-27 13:58:00,35.8,19.6,30.55,North,360,0.0,0.0,51,0.00,,BKN250,0.00,VWS V14.01,2013-01-27 18:58:00,
2013-01-27 14:07:00,36.3,19.6,30.55,North,360,0.0,0.0,50,0.00,,BKN250,0.00,VWS V14.01,2013-01-27 19:07:00,
2013-01-27 14:13:00,35.8,19.1,30.54,North,360,0.0,0.0,50,0.00,,BKN250,0.00,VWS V14.01,2013-01-27 19:13:00,
2013-01-27 14:18:00,36.3,19.1,30.54,North,360,0.0,0.0,49,0.00,,BKN250,0.00,VWS V14.01,2013-01-27 19:18:00,
2013-01-27 14:25:00,35.9,18.7,30.54,North,360,0.0,0.0,49,0.00,,BKN250,0.00,VWS V14.01,2013-01-27 19:25:00,
2013-01-27 14:33:00,36.0,18.8,30.53,North,360,0.0,0.0,49,0.00,,BKN250,0.00,VWS V14.01,2013-01-27 19:33:00,
2013-01-27 14:38:00,36.8,19.0,30.53,North,360,0.0,0.0,48,0.00,,BKN250,0.00,VWS V14.01,2013-01-27 19:38:00,
2013-01-27 14:43:00,36.6,19.4,30.54,North,360,0.0,0.0,49,0.00,,BKN250,0.00,VWS V14.01,2013-01-27 19:43:00,
2013-01-27 14:48:00,36.2,19.0,30.54,North,360,0.0,0.0,49,0.00,,BKN250,0.00,VWS V14.01,2013-01-27 19:48:00,
2013-01-27 14:58:00,36.4,19.2,30.54,North,360,0.0,0.0,49,0.00,,BKN250,0.00,VWS V14.01,2013-01-27 19:58:00,
2013-01-27 15:07:00,36.1,18.9,30.53,North,360,0.0,0.0,49,0.00,,BKN250,0.00,VWS V14.01,2013-01-27 20:07:00,
2013-01-27 15:13:00,37.0,19.8,30.53,North,360,0.0,0.0,49,0.00,,BKN250,0.00,VWS V14.01,2013-01-27 20:13:00,
2013-01-27 15:18:00,37.9,20.1,30.53,North,360,0.0,0.0,48,0.00,,BKN250,0.00,VWS V14.01,2013-01-27 20:18:00,
2013-01-27 15:23:00,36.7,19.0,30.53,North,360,0.0,0.0,48,0.00,,BKN250,0.00,VWS V14.01,2013-01-27 20:23:00,
2013-01-27 15:28:00,36.7,19.5,30.52,North,360,0.0,0.0,49,0.00,,BKN250,0.00,VWS V14.01,2013-01-27 20:28:00,
2013-01-27 15:33:00,36.8,19.6,30.52,North,360,0.0,0.0,49,0.00,,BKN250,0.00,VWS V14.01,2013-01-27 20:33:00,
2013-01-27 15:38:00,36.9,19.1,30.52,North,360,0.0,0.0,48,0.00,,BKN250,0.00,VWS V14.01,2013-01-27 20:38:00,
2013-01-27 15:43:00,36.7,19.0,30.52,North,360,0.0,0.0,48,0.00,,BKN250,0.00,VWS V14.01,2013-01-27 20:43:00,
2013-01-27 15:48:00,37.0,19.2,30.53,North,360,0.0,0.0,48,0.00,,BKN250,0.00,VWS V14.01,2013-01-27 20:48:00,
2013-01-27 15:58:00,37.3,19.5,30.53,North,360,0.0,0.0,48,0.00,,BKN250,0.00,VWS V14.01,2013-01-27 20:58:00,
2013-01-27 16:07:00,37.3,19.0,30.53,North,360,0.0,0.0,47,0.00,,BKN250,0.00,VWS V14.01,2013-01-27 21:07:00,
2013-01-27 16:13:00,36.8,18.0,30.53,North,360,0.0,0.0,46,0.00,,BKN250,0.00,VWS V14.01,2013-01-27 21:13:00,
2013-01-27 16:18:00,36.7,18.4,30.53,North,360,0.0,0.0,47,0.00,,BKN250,0.00,VWS V14.01,2013-01-27 21:18:00,
2013-01-27 16:23:00,36.7,19.0,30.53,North,360,0.0,0.0,48,0.00,,BKN250,0.00,VWS V14.01,2013-01-27 21:23:00,
2013-01-27 16:28:00,36.2,19.0,30.53,North,360,0.0,0.0,49,0.00,,BKN250,0.00,VWS V14.01,2013-01-27 21:28:00,
2013-01-27 16:38:00,36.1,19.4,30.53,North,360,0.0,0.0,50,0.00,,BKN250,0.00,VWS V14.01,2013-01-27 21:38:00,
2013-01-27 16:43:00,36.0,19.8,30.53,North,360,0.0,0.0,51,0.00,,BKN250,0.00,VWS V14.01,2013-01-27 21:43:00,
2013-01-27 16:48:00,36.0,19.3,30.53,North,360,0.0,0.0,50,0.00,,BKN250,0.00,VWS V14.01,2013-01-27 21:48:00,
2013-01-27 16:53:00,36.1,18.9,30.53,North,360,0.0,0.0,49,0.00,,BKN250,0.00,VWS V14.01,2013-01-27 21:53:00,
2013-01-27 17:03:00,35.9,19.7,30.53,North,360,0.0,0.0,51,0.00,,BKN250,0.00,VWS V14.01,2013-01-27 22:03:00,
2013-01-27 17:08:00,35.8,19.1,30.53,North,360,0.0,0.0,50,0.00,,BKN250,0.00,VWS V14.01,2013-01-27 22:08:00,
2013-01-27 17:13:00,35.8,19.1,30.53,North,360,0.0,0.0,50,0.00,,BKN250,0.00,VWS V14.01,2013-01-27 22:13:00,
2013-01-27 17:18:00,35.7,20.0,30.53,North,360,0.0,0.0,52,0.00,,BKN250,0.00,VWS V14.01,2013-01-27 22:18:00,
2013-01-27 17:23:00,35.6,20.4,30.53,North,360,0.0,0.0,54,0.00,,BKN250,0.00,VWS V14.01,2013-01-27 22:23:00,
2013-01-27 17:33:00,35.3,20.6,30.54,North,360,0.0,0.0,55,0.00,,BKN250,0.00,VWS V14.01,2013-01-27 22:33:00,
2013-01-27 17:38:00,35.4,20.7,30.53,North,360,0.0,0.0,55,0.00,,BKN250,0.00,VWS V14.01,2013-01-27 22:38:00,
2013-01-27 17:48:00,34.9,20.2,30.54,North,360,0.0,0.0,55,0.00,,BKN250,0.00,VWS V14.01,2013-01-27 22:48:00,
2013-01-27 17:58:00,34.8,19.2,30.54,North,360,0.0,0.0,52,0.00,,BKN250,0.00,VWS V14.01,2013-01-27 22:58:00,
2013-01-27 18:07:00,34.7,19.6,30.54,North,360,0.0,0.0,54,0.00,,BKN250,0.00,VWS V14.01,2013-01-27 23:07:00,
2013-01-27 18:13:00,34.5,19.9,30.54,North,360,0.0,0.0,55,0.00,,BKN250,0.00,VWS V14.01,2013-01-27 23:13:00,
2013-01-27 18:18:00,34.2,22.2,30.54,North,360,0.0,0.0,61,0.00,,BKN250,0.00,VWS V14.01,2013-01-27 23:18:00,
2013-01-27 18:28:00,34.1,21.7,30.54,North,360,0.0,0.0,60,0.00,,BKN250,0.00,VWS V14.01,2013-01-27 23:28:00,
2013-01-27 18:33:00,33.9,21.9,30.54,North,360,0.0,0.0,61,0.00,,BKN250,0.00,VWS V14.01,2013-01-27 23:33:00,
2013-01-27 18:38:00,33.9,20.6,30.54,North,360,0.0,0.0,58,0.00,,BKN250,0.00,VWS V14.01,2013-01-27 23:38:00,
2013-01-27 18:43:00,34.0,20.3,30.54,North,360,0.0,0.0,57,0.00,,BKN250,0.00,VWS V14.01,2013-01-27 23:43:00,
2013-01-27 18:48:00,34.3,20.1,30.55,North,360,0.0,0.0,56,0.00,,BKN250,0.00,VWS V14.01,2013-01-27 23:48:00,
2013-01-27 18:53:00,34.0,19.9,30.55,North,360,0.0,0.0,56,0.00,,BKN250,0.00,VWS V14.01,2013-01-27 23:53:00,
2013-01-27 18:58:00,34.0,19.4,30.55,North,360,0.0,0.0,55,0.00,,BKN250,0.00,VWS V14.01,2013-01-27 23:58:00,
2013-01-27 19:07:00,34.3,19.7,30.55,North,360,0.0,0.0,55,0.00,,BKN250,0.00,VWS V14.01,2013-01-28 00:07:00,
2013-01-27 19:13:00,34.2,19.6,30.54,North,360,0.0,0.0,55,0.00,,BKN250,0.00,VWS V14.01,2013-01-28 00:13:00,
2013-01-27 19:23:00,34.0,19.9,30.54,North,360,0.0,0.0,56,0.00,,BKN250,0.00,VWS V14.01,2013-01-28 00:23:00,
2013-01-27 19:28:00,33.6,22.9,30.53,North,360,0.0,0.0,64,0.00,,BKN250,0.00,VWS V14.01,2013-01-28 00:28:00,
2013-01-27 19:38:00,33.2,23.7,30.53,North,360,0.0,0.0,68,0.00,,BKN250,0.00,VWS V14.01,2013-01-28 00:38:00,
2013-01-27 19:43:00,32.9,23.8,30.53,North,360,0.0,0.0,69,0.00,,BKN250,0.00,VWS V14.01,2013-01-28 00:43:00,
2013-01-27 19:48:00,33.2,22.1,30.53,North,360,0.0,0.0,63,0.00,,BKN250,0.00,VWS V14.01,2013-01-28 00:48:00,
2013-01-27 19:53:00,32.9,21.8,30.54,North,360,0.0,0.0,63,0.00,,BKN250,0.00,VWS V14.01,2013-01-28 00:53:00,
2013-01-27 19:58:00,32.8,20.9,30.54,North,360,0.0,0.0,61,0.00,,SCT250,0.00,VWS V14.01,2013-01-28 00:58:00,
2013-01-27 20:07:00,32.6,21.1,30.54,North,360,0.0,0.0,62,0.00,,SCT250,0.00,VWS V14.01,2013-01-28 01:07:00,
2013-01-27 20:13:00,32.5,21.8,30.52,North,360,0.0,0.0,64,0.00,,SCT250,0.00,VWS V14.01,2013-01-28 01:13:00,
2013-01-27 20:18:00,32.5,21.0,30.52,North,360,0.0,0.0,62,0.00,,SCT250,0.00,VWS V14.01,2013-01-28 01:18:00,
2013-01-27 20:28:00,32.6,20.7,30.52,North,360,0.0,0.0,61,0.00,,SCT250,0.00,VWS V14.01,2013-01-28 01:28:00,
2013-01-27 20:33:00,32.6,21.5,30.51,North,360,0.0,0.0,63,0.00,,SCT250,0.00,VWS V14.01,2013-01-28 01:33:00,
2013-01-27 20:38:00,32.4,21.3,30.52,North,360,0.0,0.0,63,0.00,,SCT250,0.00,VWS V14.01,2013-01-28 01:38:00,
2013-01-27 20:43:00,32.3,20.8,30.52,North,360,0.0,0.0,62,0.00,,SCT250,0.00,VWS V14.01,2013-01-28 01:43:00,
2013-01-27 20:48:00,32.4,20.5,30.52,North,360,0.0,0.0,61,0.00,,SCT250,0.00,VWS V14.01,2013-01-28 01:48:00,
2013-01-27 20:53:00,32.5,20.6,30.52,North,360,0.0,0.0,61,0.00,,SCT250,0.00,VWS V14.01,2013-01-28 01:53:00,
2013-01-27 20:58:00,32.2,20.7,30.53,North,360,0.0,0.0,62,0.00,,BKN250,0.00,VWS V14.01,2013-01-28 01:58:00,
2013-01-27 21:07:00,32.2,20.7,30.54,North,360,0.0,0.0,62,0.00,,BKN250,0.00,VWS V14.01,2013-01-28 02:07:00,
2013-01-27 21:13:00,31.9,20.5,30.55,North,360,0.0,0.0,62,0.00,,BKN250,0.00,VWS V14.01,2013-01-28 02:13:00,
2013-01-27 21:23:00,31.8,20.8,30.55,North,360,0.0,0.0,63,0.00,,BKN250,0.00,VWS V14.01,2013-01-28 02:23:00,
2013-01-27 21:33:00,32.3,20.4,30.55,North,360,0.0,0.0,61,0.00,,BKN250,0.00,VWS V14.01,2013-01-28 02:33:00,
2013-01-27 21:38:00,32.2,20.3,30.54,North,360,0.0,0.0,61,0.00,,BKN250,0.00,VWS V14.01,2013-01-28 02:38:00,
2013-01-27 21:43:00,32.2,20.3,30.53,North,360,0.0,0.0,61,0.00,,BKN250,0.00,VWS V14.01,2013-01-28 02:43:00,
2013-01-27 21:48:00,32.0,20.1,30.53,North,360,0.0,0.0,61,0.00,,BKN250,0.00,VWS V14.01,2013-01-28 02:48:00,
2013-01-27 21:53:00,32.3,20.0,30.53,North,360,0.0,0.0,60,0.00,,BKN250,0.00,VWS V14.01,2013-01-28 02:53:00,
2013-01-27 21:58:00,32.2,20.3,30.52,North,360,0.0,0.0,61,0.00,,BKN250,0.00,VWS V14.01,2013-01-28 02:58:00,
2013-01-27 22:07:00,32.2,20.7,30.52,North,360,0.0,0.0,62,0.00,,BKN250,0.00,VWS V14.01,2013-01-28 03:07:00,
2013-01-27 22:13:00,31.8,20.8,30.53,North,360,0.0,0.0,63,0.00,,BKN250,0.00,VWS V14.01,2013-01-28 03:13:00,
2013-01-27 22:18:00,31.7,20.7,30.52,North,360,0.0,0.0,63,0.00,,BKN250,0.00,VWS V14.01,2013-01-28 03:18:00,
2013-01-27 22:28:00,32.0,20.5,30.51,North,360,0.0,0.0,62,0.00,,BKN250,0.00,VWS V14.01,2013-01-28 03:28:00,
2013-01-27 22:33:00,31.9,20.5,30.51,North,360,0.0,0.0,62,0.00,,BKN250,0.00,VWS V14.01,2013-01-28 03:33:00,
2013-01-27 22:38:00,31.9,20.5,30.52,North,360,0.0,0.0,62,0.00,,BKN250,0.00,VWS V14.01,2013-01-28 03:38:00,
2013-01-27 22:43:00,31.7,20.3,30.52,North,360,0.0,0.0,62,0.00,,BKN250,0.00,VWS V14.01,2013-01-28 03:43:00,
2013-01-27 22:48:00,31.8,20.8,30.52,North,360,0.0,0.0,63,0.00,,BKN250,0.00,VWS V14.01,2013-01-28 03:48:00,
2013-01-27 22:53:00,31.8,20.8,30.52,North,360,0.0,0.0,63,0.00,,BKN250,0.00,VWS V14.01,2013-01-28 03:53:00,
2013-01-27 22:58:00,31.9,21.2,30.51,North,360,0.0,0.0,64,0.00,,BKN250,0.00,VWS V14.01,2013-01-28 03:58:00,
2013-01-27 23:07:00,31.8,21.9,30.51,North,360,0.0,0.0,67,0.00,,BKN250,0.00,VWS V14.01,2013-01-28 04:07:00,
2013-01-27 23:13:00,31.9,22.0,30.52,North,360,0.0,0.0,67,0.00,,BKN250,0.00,VWS V14.01,2013-01-28 04:13:00,
2013-01-27 23:18:00,32.0,21.7,30.53,North,360,0.0,0.0,65,0.00,,BKN250,0.00,VWS V14.01,2013-01-28 04:18:00,
2013-01-27 23:23:00,32.0,21.7,30.52,North,360,0.0,0.0,65,0.00,,BKN250,0.00,VWS V14.01,2013-01-28 04:23:00,
2013-01-27 23:28:00,32.2,21.9,30.53,North,360,0.0,0.0,65,0.00,,BKN250,0.00,VWS V14.01,2013-01-28 04:28:00,
2013-01-27 23:33:00,32.2,21.9,30.53,North,360,0.0,0.0,65,0.00,,BKN250,0.00,VWS V14.01,2013-01-28 04:33:00,
2013-01-27 23:38:00,32.2,22.3,30.53,North,360,0.0,0.0,67,0.00,,BKN250,0.00,VWS V14.01,2013-01-28 04:38:00,
2013-01-27 23:48:00,32.1,22.2,30.53,North,360,0.0,0.0,67,0.00,,BKN250,0.00,VWS V14.01,2013-01-28 04:48:00,
2013-01-27 23:53:00,32.2,22.7,30.52,North,360,0.0,0.0,68,0.00,,BKN250,0.00,VWS V14.01,2013-01-28 04:53:00,
2013-01-27 23:58:00,32.3,23.5,30.53,North,360,0.0,0.0,70,0.00,,BKN250,0.00,VWS V14.01,2013-01-28 04:58:00,